カタログに戻る

STARLINK-32406

運用中通信VLEO
NORAD 61545·PAYLOAD·🇺🇸 United States

打ち上げ Oct 15, 2024 から Vandenberg Space Force Base

Loading…

次のパス (今後24時間)

TLE

最新Source: CelesTrak SupGP

元期: Sep 14, 2026, 21:35 UTC

1 61545C 24184P   26257.89979167  .00022249  00000+0  65718-3 0  2573
2 61545  53.1594 212.0866 0001498  90.0236  71.2774 15.34386612    15

AllMySatでSTARLINK-32406をリアルタイム追跡

Download on the App Store